QPF
0.02 0.02 0.03 0.02 0.01 0.02 0.02 0.02 0.02 0.02 0.03 0.03 0.00 0.00 0.00 0.00 0.00 0.00 0.00 0.00 0.01 0.00 0.00 0.00 0.00 0.00 0.00 0.00 0.00 0.00 0.00 0.00 0.00 0.00 0.00 0.00 0.00 0.00 0.00 0.00 0.00 0.00 0.00 0.00 0.00 0.00 0.00 0.00 0.00 0.00 0.00 0.00 0.00 0.00
0.03 0.04 0.04 0.02 0.02 0.02 0.02 0.02 0.02 0.02 0.03 0.03 0.00 0.00 0.00 0.00 0.00 0.00 0.00 0.00 0.00 0.00 0.00 0.00 0.00 0.00 0.00 0.00 0.00 0.00 0.00 0.00 0.00 0.00 0.00 0.00 0.00 0.00 0.00 0.00 0.00 0.00 0.00 0.00 0.00 0.00 0.00 0.00 0.00 0.00 0.00 0.00 0.00 0.00
0.04 0.04 0.03 0.03 0.03 0.01 0.02 0.02 0.02 0.02 0.05 0.05 0.01 0.00 0.00 0.00 0.00 0.00 0.00 0.00 0.00 0.00 0.00 0.00 0.00 0.00 0.00 0.00 0.00 0.00 0.00 0.00 0.00 0.00 0.00 0.00 0.00 0.00 0.00 0.00 0.00 0.00 0.00 0.00 0.00 0.00 0.00 0.00 0.00 0.00 0.00 0.00 0.00 0.00
0.07 0.04 0.03 0.02 0.01 0.01 0.02 0.02 0.02 0.02 0.04 0.05 0.01 0.00 0.00 0.00 0.00 0.00 0.00 0.00 0.00 0.00 0.00 0.00 0.00 0.00 0.00 0.00 0.00 0.00 0.00 0.00 0.00 0.00 0.00 0.00 0.00 0.00 0.00 0.00 0.00 0.00 0.00 0.00 0.00 0.00 0.00 0.00 0.00 0.00 0.00 0.00 0.00 0.00
0.06 0.02 0.00 0.00 0.00 0.01 0.03 0.03 0.03 0.03 0.05 0.05 0.02 0.00 0.00 0.00 0.00 0.00 0.00 0.00 0.00 0.00 0.00 0.00 0.00 0.00 0.00 0.00 0.00 0.00 0.00 0.00 0.00 0.00 0.00 0.00 0.00 0.00 0.00 0.00 0.00 0.00 0.00 0.00 0.00 0.00 0.00 0.00 0.00 0.00 0.00 0.00 0.00 0.00
0.03 0.01 0.00 0.00 0.00 0.02 0.04 0.04 0.03 0.04 0.04 0.03 0.03 0.01 0.00 0.00 0.00 0.00 0.00 0.00 0.00 0.00 0.00 0.00 0.00 0.00 0.00 0.00 0.00 0.00 0.00 0.00 0.00 0.00 0.00 0.00 0.00 0.00 0.00 0.00 0.00 0.00 0.00 0.00 0.00 0.00 0.00 0.00 0.00 0.00 0.00 0.00 0.00 0.00
0.00 0.00 0.00 0.00 0.00 0.01 0.04 0.05 0.02 0.02 0.04 0.03 0.02 0.01 0.00 0.00 0.00 0.00 0.00 0.00 0.00 0.01 0.00 0.00 0.00 0.00 0.00 0.00 0.00 0.00 0.00 0.00 0.00 0.00 0.00 0.00 0.00 0.00 0.00 0.00 0.00 0.00 0.00 0.00 0.00 0.00 0.00 0.00 0.00 0.00 0.00 0.00 0.00 0.00
0.00 0.00 0.00 0.01 0.01 0.03 0.04 0.04 0.04 0.04 0.03 0.02 0.02 0.01 0.00 0.00 0.00 0.00 0.00 0.00 0.00 0.01 0.00 0.00 0.00 0.00 0.00 0.00 0.00 0.00 0.00 0.00 0.00 0.00 0.00 0.00 0.00 0.00 0.00 0.00 0.00 0.00 0.00 0.00 0.00 0.00 0.00 0.00 0.00 0.00 0.00 0.00 0.00 0.00
0.00 0.00 0.03 0.02 0.01 0.02 0.05 0.04 0.05 0.03 0.02 0.01 0.01 0.00 0.00 0.00 0.00 0.00 0.00 0.00 0.00 0.00 0.00 0.00 0.00 0.00 0.00 0.00 0.00 0.00 0.00 0.00 0.00 0.00 0.00 0.00 0.00 0.00 0.00 0.00 0.00 0.00 0.00 0.00 0.00 0.00 0.00 0.00 0.00 0.00 0.00 0.00 0.00 0.00
0.02 0.01 0.02 0.03 0.03 0.04 0.06 0.04 0.02 0.00 0.00 0.00 0.00 0.00 0.00 0.00 0.00 0.00 0.00 0.00 0.00 0.00 0.00 0.00 0.00 0.00 0.00 0.00 0.00 0.00 0.00 0.00 0.00 0.00 0.00 0.00 0.00 0.00 0.00 0.00 0.00 0.00 0.00 0.00 0.00 0.00 0.00 0.00 0.00 0.00 0.00 0.00 0.00 0.00
0.01 0.00 0.04 0.05 0.06 0.06 0.04 0.02 0.00 0.00 0.00 0.00 0.00 0.00 0.00 0.00 0.00 0.00 0.01 0.01 0.00 0.00 0.00 0.00 0.00 0.00 0.00 0.00 0.00 0.00 0.00 0.00 0.00 0.00 0.00 0.00 0.00 0.00 0.00 0.00 0.00 0.00 0.00 0.00 0.00 0.00 0.00 0.00 0.00 0.00 0.00 0.00 0.00 0.00
0.00 0.00 0.04 0.06 0.04 0.03 0.01 0.01 0.00 0.00 0.00 0.00 0.00 0.00 0.00 0.00 0.01 0.00 0.02 0.01 0.00 0.01 0.00 0.00 0.00 0.00 0.00 0.01 0.01 0.00 0.01 0.01 0.00 0.00 0.00 0.00 0.00 0.00 0.00 0.00 0.00 0.00 0.00 0.00 0.00 0.00 0.00 0.00 0.00 0.00 0.00 0.00 0.00 0.00
0.00 0.00 0.04 0.06 0.03 0.03 0.03 0.02 0.00 0.00 0.00 0.00 0.00 0.00 0.00 0.00 0.00 0.01 0.01 0.00 0.00 0.00 0.00 0.00 0.00 0.00 0.00 0.02 0.03 0.01 0.01 0.00 0.00 0.00 0.00 0.00 0.00 0.00 0.00 0.00 0.00 0.00 0.00 0.00 0.00 0.00 0.00 0.00 0.00 0.00 0.00 0.00 0.00 0.00
0.00 0.00 0.00 0.01 0.02 0.04 0.04 0.03 0.01 0.00 0.00 0.00 0.00 0.00 0.00 0.00 0.00 0.00 0.00 0.00 0.00 0.00 0.00 0.00 0.00 0.01 0.01 0.03 0.03 0.02 0.01 0.00 0.00 0.00 0.00 0.00 0.00 0.00 0.00 0.00 0.00 0.00 0.00 0.00 0.00 0.00 0.00 0.00 0.00 0.00 0.00 0.00 0.00 0.00
0.00 0.00 0.00 0.00 0.00 0.02 0.03 0.04 0.01 0.00 0.00 0.00 0.00 0.00 0.00 0.00 0.00 0.00 0.00 0.00 0.00 0.00 0.00 0.01 0.01 0.02 0.02 0.04 0.04 0.04 0.01 0.00 0.00 0.00 0.00 0.00 0.00 0.00 0.00 0.00 0.00 0.00 0.00 0.00 0.00 0.00 0.00 0.00 0.00 0.00 0.00 0.00 0.00 0.00
0.00 0.00 0.00 0.00 0.00 0.01 0.04 0.04 0.00 0.00 0.00 0.00 0.00 0.00 0.00 0.00 0.00 0.00 0.00 0.00 0.00 0.00 0.01 0.05 0.03 0.03 0.02 0.02 0.01 0.02 0.01 0.00 0.00 0.00 0.00 0.00 0.00 0.00 0.00 0.00 0.00 0.00 0.00 0.00 0.00 0.00 0.00 0.00 0.00 0.00 0.00 0.00 0.00 0.00
0.01 0.00 0.00 0.01 0.01 0.01 0.02 0.00 0.00 0.01 0.00 0.00 0.00 0.00 0.00 0.00 0.00 0.00 0.00 0.00 0.00 0.01 0.03 0.03 0.02 0.02 0.01 0.00 0.00 0.00 0.00 0.00 0.00 0.00 0.00 0.00 0.00 0.00 0.00 0.00 0.00 0.00 0.00 0.00 0.00 0.00 0.00 0.00 0.00 0.00 0.00 0.00 0.00 0.00
0.00 0.00 0.01 0.02 0.00 0.00 0.00 0.01 0.01 0.01 0.00 0.00 0.00 0.00 0.00 0.00 0.00 0.00 0.00 0.00 0.01 0.01 0.01 0.01 0.00 0.00 0.00 0.00 0.00 0.00 0.00 0.00 0.00 0.00 0.00 0.00 0.00 0.00 0.00 0.00 0.00 0.00 0.00 0.00 0.00 0.00 0.00 0.00 0.00 0.00 0.00 0.00 0.00 0.00
0.00 0.00 0.00 0.00 0.00 0.00 0.00 0.00 0.01 0.01 0.00 0.00 0.00 0.00 0.00 0.00 0.00 0.00 0.00 0.00 0.00 0.00 0.00 0.00 0.00 0.00 0.00 0.00 0.00 0.00 0.00 0.00 0.00 0.00 0.00 0.00 0.00 0.00 0.00 0.00 0.00 0.00 0.00 0.00 0.00 0.00 0.00 0.00 0.00 0.00 0.00 0.00 0.00 0.00
0.00 0.00 0.00 0.00 0.01 0.00 0.00 0.00 0.00 0.00 0.00 0.00 0.00 0.00 0.00 0.00 0.00 0.00 0.00 0.00 0.00 0.00 0.00 0.00 0.00 0.00 0.00 0.00 0.00 0.00 0.00 0.00 0.00 0.00 0.00 0.00 0.00 0.00 0.00 0.00 0.00 0.00 0.00 0.00 0.00 0.00 0.00 0.00 0.00 0.00 0.00 0.00 0.00 0.00
0.00 0.00 0.00 0.00 0.00 0.00 0.00 0.00 0.00 0.00 0.00 0.00 0.00 0.00 0.00 0.00 0.00 0.00 0.00 0.00 0.00 0.00 0.00 0.00 0.00 0.00 0.00 0.00 0.00 0.00 0.00 0.00 0.00 0.00 0.00 0.00 0.00 0.00 0.00 0.00 0.00 0.00 0.00 0.00 0.00 0.00 0.00 0.00 0.00 0.00 0.00 0.00 0.00 0.00
0.00 0.00 0.00 0.00 0.00 0.00 0.00 0.00 0.00 0.00 0.00 0.00 0.00 0.00 0.00 0.00 0.00 0.00 0.00 0.00 0.00 0.00 0.00 0.00 0.00 0.00 0.00 0.00 0.00 0.00 0.00 0.00 0.00 0.00 0.00 0.00 0.00 0.00 0.00 0.00 0.00 0.00 0.00 0.00 0.00 0.00 0.00 0.00 0.00 0.00 0.00 0.00 0.00 0.00
0.00 0.00 0.00 0.00 0.00 0.00 0.00 0.00 0.00 0.00 0.00 0.00 0.00 0.00 0.00 0.00 0.00 0.00 0.00 0.00 0.00 0.00 0.00 0.00 0.00 0.00 0.00 0.00 0.00 0.00 0.00 0.00 0.00 0.00 0.00 0.00 0.00 0.00 0.00 0.00 0.00 0.00 0.00 0.00 0.00 0.00 0.00 0.00 0.00 0.00 0.00 0.00 0.00 0.00
0.00 0.00 0.00 0.00 0.00 0.00 0.00 0.00 0.00 0.00 0.00 0.00 0.00 0.00 0.00 0.00 0.00 0.00 0.00 0.00 0.00 0.00 0.00 0.00 0.00 0.00 0.00 0.00 0.00 0.00 0.00 0.00 0.00 0.00 0.00 0.00 0.00 0.00 0.00 0.00 0.00 0.00 0.00 0.00 0.00 0.00 0.00 0.00 0.00 0.00 0.00 0.00 0.00 0.00
0.00 0.00 0.00 0.00 0.00 0.00 0.00 0.00 0.00 0.00 0.00 0.00 0.00 0.00 0.00 0.00 0.00 0.00 0.00 0.00 0.00 0.00 0.00 0.00 0.00 0.00 0.00 0.00 0.00 0.00 0.00 0.00 0.00 0.00 0.00 0.00 0.00 0.00 0.00 0.00 0.00 0.00 0.00 0.00 0.00 0.00 0.00 0.00 0.00 0.00 0.00 0.00 0.00 0.00
0.00 0.00 0.00 0.00 0.00 0.00 0.00 0.00 0.00 0.00 0.00 0.00 0.00 0.00 0.00 0.00 0.00 0.00 0.00 0.00 0.00 0.00 0.00 0.00 0.00 0.00 0.00 0.00 0.00 0.00 0.00 0.00 0.00 0.00 0.00 0.00 0.00 0.00 0.00 0.00 0.00 0.00 0.00 0.00 0.00 0.00 0.00 0.00 0.00 0.00 0.00 0.00 0.00 0.00
0.00 0.00 0.00 0.00 0.00 0.00 0.00 0.00 0.00 0.00 0.00 0.00 0.00 0.00 0.00 0.00 0.00 0.00 0.00 0.00 0.00 0.00 0.00 0.00 0.00 0.00 0.00 0.00 0.00 0.00 0.00 0.00 0.00 0.00 0.00 0.00 0.00 0.00 0.00 0.00 0.00 0.00 0.00 0.00 0.00 0.00 0.00 0.00 0.00 0.00 0.00 0.00 0.00 0.00
0.00 0.00 0.00 0.00 0.00 0.00 0.00 0.00 0.00 0.00 0.00 0.00 0.00 0.00 0.00 0.00 0.00 0.00 0.00 0.00 0.00 0.00 0.00 0.00 0.00 0.00 0.00 0.00 0.00 0.00 0.00 0.00 0.00 0.00 0.00 0.00 0.00 0.00 0.00 0.00 0.00 0.00 0.00 0.00 0.00 0.00 0.00 0.00 0.00 0.00 0.00 0.00 0.00 0.00
0.00 0.00 0.00 0.00 0.00 0.00 0.00 0.00 0.00 0.00 0.00 0.00 0.00 0.00 0.00 0.00 0.00 0.00 0.00 0.00 0.00 0.00 0.00 0.00 0.00 0.00 0.00 0.00 0.00 0.00 0.00 0.00 0.00 0.00 0.00 0.00 0.00 0.00 0.00 0.00 0.00 0.00 0.00 0.00 0.00 0.00 0.00 0.00 0.00 0.00 0.00 0.00 0.00 0.00
0.00 0.00 0.00 0.00 0.00 0.00 0.00 0.00 0.00 0.00 0.00 0.00 0.00 0.00 0.00 0.00 0.00 0.00 0.00 0.00 0.00 0.00 0.00 0.00 0.00 0.00 0.00 0.00 0.00 0.00 0.00 0.00 0.00 0.00 0.00 0.00 0.00 0.00 0.00 0.00 0.00 0.00 0.00 0.00 0.00 0.00 0.00 0.00 0.00 0.00 0.00 0.00 0.00 0.00
0.00 0.00 0.00 0.00 0.00 0.00 0.00 0.00 0.00 0.00 0.00 0.00 0.00 0.00 0.00 0.00 0.00 0.00 0.00 0.00 0.00 0.00 0.00 0.00 0.00 0.00 0.00 0.00 0.00 0.00 0.00 0.00 0.00 0.00 0.00 0.00 0.00 0.00 0.00 0.00 0.00 0.00 0.00 0.00 0.00 0.00 0.00 0.00 0.00 0.00 0.00 0.00 0.00 0.00
0.00 0.00 0.00 0.00 0.00 0.00 0.00 0.00 0.00 0.00 0.00 0.00 0.00 0.00 0.00 0.00 0.00 0.00 0.00 0.00 0.00 0.00 0.00 0.00 0.00 0.00 0.00 0.00 0.00 0.00 0.00 0.00 0.00 0.00 0.00 0.00 0.00 0.00 0.00 0.00 0.00 0.00 0.00 0.00 0.00 0.00 0.00 0.00 0.00 0.00 0.00 0.00 0.00 0.00
0.00 0.00 0.00 0.00 0.00 0.00 0.00 0.00 0.00 0.00 0.00 0.00 0.00 0.00 0.00 0.00 0.00 0.00 0.00 0.00 0.00 0.00 0.00 0.00 0.00 0.00 0.00 0.00 0.00 0.00 0.00 0.00 0.00 0.00 0.00 0.00 0.00 0.00 0.00 0.00 0.00 0.00 0.00 0.00 0.00 0.00 0.00 0.00 0.00 0.00 0.00 0.00 0.00 0.00
MSLP
1005.37 1005.19 1005.20 1005.29 1005.26 1005.29 1005.12 1005.58 1005.88 1006.23 1006.81 1007.52 1008.09 1008.97 1009.15 1009.23 1009.71 1010.18 1009.68 1009.37 1009.38 1010.26 1010.34 1009.72 1009.41 1009.70 1010.50 1011.30 1012.81 1015.06 1016.16 1016.70 1016.72 1016.34 1017.01 1017.31 1017.63 1018.25 1019.13 1019.85 1020.61 1020.76 1021.61 1022.02 1021.81 1020.79 1018.68 1015.82 1016.97 1016.14 1013.71 1013.31 1013.10 1013.30
1004.34 1004.32 1004.41 1004.71 1004.65 1004.58 1004.62 1004.93 1005.41 1005.43 1006.14 1006.91 1007.82 1008.49 1008.85 1009.09 1009.54 1009.88 1009.76 1009.15 1009.23 1010.17 1010.46 1009.94 1009.87 1009.61 1009.29 1009.48 1011.85 1013.51 1013.36 1014.09 1014.29 1015.16 1015.63 1016.26 1016.81 1017.52 1018.08 1019.24 1019.23 1019.09 1017.53 1018.44 1018.12 1016.71 1014.97 1014.78 1013.77 1013.30 1013.25 1013.29 1013.24 1013.24
1003.49 1003.50 1003.81 1004.01 1003.78 1003.89 1003.89 1004.22 1004.45 1004.81 1005.68 1006.60 1007.39 1008.02 1008.65 1008.96 1009.17 1009.59 1009.67 1009.31 1009.34 1009.94 1010.41 1010.52 1009.88 1009.67 1009.74 1009.56 1009.96 1011.91 1013.18 1013.05 1013.39 1013.11 1014.11 1015.12 1015.86 1016.38 1016.83 1017.05 1017.43 1017.42 1016.73 1016.89 1016.97 1015.15 1014.48 1013.86 1013.46 1013.64 1013.35 1013.20 1012.96 1013.01
1002.73 1002.93 1003.05 1003.25 1003.53 1003.18 1003.46 1003.80 1003.43 1004.11 1004.98 1005.96 1006.92 1007.70 1008.29 1008.81 1009.10 1009.30 1009.57 1009.14 1009.10 1009.73 1010.30 1010.06 1009.71 1009.71 1009.55 1009.74 1010.01 1010.62 1011.44 1012.49 1012.91 1013.25 1013.91 1014.87 1015.45 1015.13 1015.42 1015.30 1015.39 1015.37 1015.79 1016.04 1015.49 1014.47 1014.04 1013.38 1012.98 1012.86 1013.01 1012.76 1012.81 1013.13
1002.46 1002.58 1002.58 1002.67 1002.65 1002.70 1002.81 1002.62 1002.60 1003.58 1004.49 1005.61 1006.60 1007.43 1008.16 1008.63 1008.97 1009.31 1009.26 1009.02 1009.07 1009.40 1009.90 1010.32 1009.95 1009.70 1009.74 1009.76 1010.24 1010.88 1011.27 1012.13 1012.84 1013.86 1014.22 1014.68 1014.65 1014.86 1015.11 1015.00 1014.29 1013.94 1013.98 1014.24 1013.60 1012.50 1012.43 1012.16 1011.97 1012.26 1013.03 1013.09 1013.10 1013.10
1002.50 1002.42 1002.33 1002.33 1002.34 1002.10 1002.16 1001.86 1002.49 1003.36 1004.31 1005.43 1006.57 1007.30 1008.01 1008.41 1008.80 1009.23 1009.54 1009.32 1009.21 1009.47 1010.00 1010.39 1010.02 1010.21 1009.97 1009.94 1010.44 1010.83 1011.05 1011.88 1012.41 1012.98 1013.71 1013.85 1013.56 1013.57 1014.15 1013.36 1012.10 1012.02 1011.98 1011.65 1011.75 1012.00 1012.21 1012.37 1012.63 1012.97 1013.23 1013.33 1013.28 1013.61
1002.32 1002.21 1002.00 1001.91 1001.97 1001.77 1001.83 1001.77 1002.55 1003.33 1004.19 1005.33 1006.35 1007.06 1007.93 1008.42 1008.98 1009.44 1009.49 1009.69 1009.59 1009.96 1009.98 1010.52 1010.37 1010.29 1010.01 1010.20 1010.76 1010.90 1011.05 1011.57 1012.34 1013.07 1013.26 1013.39 1013.54 1012.99 1013.04 1012.14 1011.63 1011.40 1011.26 1011.66 1011.70 1012.05 1013.00 1013.19 1013.66 1014.13 1014.32 1014.50 1014.49 1014.42
1002.00 1001.81 1001.57 1000.95 1001.36 1001.23 1001.67 1002.03 1003.04 1003.87 1003.89 1005.44 1006.46 1007.37 1008.17 1008.58 1008.87 1009.24 1009.46 1009.06 1009.46 1009.61 1010.15 1010.00 1009.83 1010.13 1009.81 1010.01 1010.75 1010.86 1011.39 1011.81 1012.50 1012.75 1012.97 1012.94 1013.25 1013.22 1012.54 1011.06 1011.26 1011.22 1011.67 1012.12 1012.24 1012.57 1013.23 1014.03 1014.86 1015.48 1015.51 1015.73 1015.90 1016.23
1001.83 1001.42 1000.97 1000.51 1000.02 1001.01 1001.29 1002.16 1003.05 1004.19 1005.14 1005.88 1006.76 1007.74 1008.61 1009.25 1009.93 1009.99 1009.58 1009.56 1009.71 1010.34 1009.39 1009.16 1008.82 1009.32 1009.37 1009.64 1010.04 1010.79 1010.96 1011.91 1012.22 1012.42 1012.37 1012.59 1012.81 1012.46 1010.98 1011.78 1011.97 1012.01 1012.59 1012.70 1013.71 1013.98 1014.25 1014.98 1016.15 1016.58 1016.80 1017.01 1017.40 1017.73
1001.72 1000.82 1000.15 1000.36 1000.88 1000.81 1001.53 1002.65 1003.75 1004.62 1005.38 1006.51 1007.59 1008.77 1009.82 1010.18 1009.81 1009.67 1009.64 1010.00 1010.08 1009.67 1009.23 1008.32 1007.88 1008.58 1008.82 1009.42 1010.08 1010.66 1010.80 1011.24 1011.77 1011.70 1012.03 1012.22 1012.20 1011.35 1011.71 1012.63 1013.19 1013.62 1014.27 1014.33 1015.02 1016.12 1016.03 1016.61 1017.56 1018.14 1018.36 1018.37 1018.32 1019.13
1001.77 1000.89 1000.53 1000.90 1001.35 1001.76 1002.37 1003.51 1004.21 1005.22 1006.28 1007.39 1008.73 1009.74 1010.07 1009.82 1010.13 1010.33 1010.34 1010.34 1009.59 1008.91 1008.11 1007.84 1007.72 1008.10 1008.74 1008.97 1009.38 1009.69 1009.70 1010.23 1010.52 1010.94 1011.81 1012.59 1012.88 1012.51 1013.65 1014.77 1015.66 1015.92 1015.96 1016.11 1016.46 1016.97 1017.42 1017.27 1018.30 1018.92 1019.38 1019.35 1019.51 1019.63
1002.83 1002.27 1001.56 1001.71 1002.05 1002.67 1003.31 1003.98 1005.10 1006.13 1006.94 1007.33 1008.37 1009.59 1010.25 1010.77 1010.83 1011.15 1010.65 1009.95 1009.35 1008.33 1007.64 1007.23 1007.36 1007.57 1008.46 1008.58 1008.50 1008.92 1009.08 1009.48 1009.78 1010.32 1012.03 1013.03 1012.99 1015.00 1016.08 1017.24 1017.92 1018.03 1018.00 1018.07 1018.19 1018.34 1018.65 1019.11 1019.43 1019.51 1019.90 1020.35 1020.37 1020.48
1004.01 1003.62 1003.01 1003.02 1003.41 1003.68 1004.13 1005.04 1005.55 1006.23 1006.94 1008.04 1009.04 1010.74 1011.72 1012.28 1012.10 1011.50 1010.72 1009.89 1009.67 1008.18 1007.51 1007.14 1007.27 1007.28 1007.78 1007.82 1007.91 1008.24 1008.30 1008.75 1009.32 1010.92 1012.17 1013.31 1015.12 1016.86 1018.05 1018.94 1019.57 1019.97 1019.89 1019.55 1019.62 1019.76 1019.90 1020.21 1020.19 1020.33 1020.68 1020.91 1020.98 1020.93
1004.89 1004.82 1004.71 1004.23 1004.13 1004.47 1005.04 1005.71 1006.19 1006.54 1007.64 1009.78 1011.29 1012.66 1013.24 1013.16 1012.65 1011.61 1011.46 1010.66 1009.58 1008.63 1007.79 1007.12 1006.98 1006.95 1007.36 1007.58 1007.50 1007.88 1008.31 1008.90 1010.22 1011.80 1013.62 1014.73 1016.74 1018.65 1019.87 1020.45 1020.65 1021.17 1021.19 1021.00 1020.85 1020.86 1020.92 1021.18 1021.10 1021.01 1021.46 1021.48 1020.92 1021.09
1005.41 1005.36 1005.24 1005.32 1005.53 1005.47 1005.63 1006.06 1006.47 1007.18 1008.86 1011.01 1012.36 1013.53 1013.94 1013.02 1012.69 1012.01 1011.33 1010.77 1009.42 1008.53 1007.66 1007.26 1007.13 1007.16 1007.28 1007.75 1007.62 1008.13 1009.06 1009.63 1011.21 1013.37 1015.42 1017.15 1018.81 1020.40 1021.18 1021.19 1021.29 1021.60 1021.60 1021.98 1021.98 1022.13 1022.17 1021.83 1021.72 1021.88 1021.78 1021.72 1021.55 1021.60
1005.56 1005.65 1005.77 1005.64 1005.58 1005.68 1006.05 1006.93 1007.45 1008.37 1010.15 1011.74 1012.84 1013.73 1013.89 1013.88 1013.33 1012.54 1011.75 1010.72 1009.50 1008.62 1007.87 1007.34 1007.38 1007.33 1007.12 1007.61 1008.37 1009.22 1010.22 1011.61 1013.70 1015.50 1017.27 1019.04 1020.72 1021.63 1022.17 1022.23 1022.10 1022.33 1022.42 1022.48 1022.65 1022.70 1022.45 1022.28 1022.26 1022.42 1022.24 1022.09 1021.93 1022.07
1005.45 1006.18 1005.89 1005.92 1005.98 1006.35 1006.84 1007.72 1008.75 1009.75 1011.28 1012.75 1013.56 1013.40 1013.66 1013.70 1013.25 1012.62 1011.87 1011.12 1010.49 1009.90 1008.59 1007.92 1007.93 1008.12 1008.67 1009.24 1010.44 1011.68 1013.38 1014.76 1015.98 1017.98 1018.67 1020.43 1021.67 1022.43 1022.85 1022.75 1022.51 1022.46 1022.72 1022.76 1022.70 1022.86 1022.98 1023.10 1022.80 1022.65 1022.57 1022.70 1022.57 1022.65
1005.88 1005.95 1005.97 1006.30 1006.68 1007.35 1008.38 1009.02 1009.88 1011.18 1012.38 1013.19 1013.97 1014.08 1013.86 1013.62 1013.21 1012.59 1012.11 1011.53 1011.26 1010.41 1009.52 1008.89 1009.13 1009.87 1010.93 1011.73 1013.05 1014.30 1015.70 1017.06 1018.39 1019.38 1020.58 1021.57 1022.19 1022.45 1022.40 1022.52 1022.87 1022.79 1022.86 1023.13 1023.11 1023.02 1023.30 1023.44 1023.42 1023.42 1023.22 1023.08 1023.10 1023.31
1006.12 1006.46 1006.68 1006.85 1007.13 1008.26 1009.79 1010.92 1011.35 1012.29 1013.02 1013.38 1013.97 1013.86 1013.77 1013.55 1013.20 1012.92 1012.72 1012.49 1012.02 1011.34 1010.96 1010.34 1011.01 1011.95 1012.88 1013.65 1014.71 1015.74 1017.02 1018.03 1019.34 1020.68 1021.38 1021.99 1022.50 1022.80 1023.00 1023.05 1023.45 1023.21 1023.16 1023.41 1023.62 1023.59 1023.82 1024.03 1024.13 1024.08 1023.91 1023.61 1023.73 1024.18
1006.62 1006.97 1007.29 1007.35 1007.58 1009.30 1011.34 1012.18 1012.17 1012.91 1013.85 1013.59 1014.19 1014.08 1013.85 1013.78 1013.59 1013.34 1013.17 1012.96 1012.54 1012.32 1012.17 1012.59 1013.53 1014.35 1015.25 1016.43 1017.11 1017.25 1017.82 1018.49 1019.70 1021.13 1022.02 1022.65 1023.10 1023.36 1023.73 1023.75 1023.83 1023.79 1023.64 1023.64 1024.09 1024.32 1024.65 1024.77 1024.80 1024.69 1024.49 1024.42 1024.53 1024.88
1006.86 1007.53 1007.57 1007.97 1009.49 1010.37 1012.25 1013.56 1013.66 1013.73 1013.84 1014.01 1013.97 1013.96 1014.42 1014.06 1013.93 1013.94 1014.06 1014.29 1014.17 1014.40 1015.00 1015.49 1016.60 1017.63 1018.09 1018.25 1018.44 1018.48 1019.23 1019.18 1019.60 1019.95 1020.78 1022.40 1023.24 1023.58 1023.83 1024.01 1024.02 1024.29 1024.21 1024.21 1024.67 1025.29 1025.33 1025.44 1025.60 1025.49 1025.30 1025.35 1025.45 1025.72
1007.81 1007.57 1008.09 1008.42 1010.05 1011.84 1013.37 1014.77 1014.75 1014.34 1014.40 1014.44 1014.47 1014.40 1014.56 1014.61 1014.58 1015.03 1015.42 1015.06 1015.86 1016.82 1017.73 1018.39 1019.21 1019.75 1020.13 1020.38 1020.44 1020.51 1020.78 1020.50 1020.51 1020.65 1021.28 1021.80 1023.02 1023.98 1024.48 1024.66 1024.79 1025.02 1025.32 1025.90 1026.09 1026.18 1026.12 1026.02 1026.04 1026.02 1026.03 1026.22 1026.30 1026.68
1007.97 1008.23 1009.28 1010.07 1011.39 1012.81 1015.46 1015.62 1015.61 1015.53 1015.36 1015.28 1015.17 1015.17 1015.29 1015.32 1015.50 1015.75 1015.83 1016.26 1017.26 1018.84 1019.79 1020.37 1021.03 1021.17 1021.70 1022.03 1022.03 1022.04 1022.02 1021.77 1021.92 1022.26 1022.61 1022.82 1023.45 1024.41 1025.14 1025.54 1025.52 1025.93 1026.52 1027.11 1026.96 1026.97 1026.78 1026.65 1026.78 1026.76 1026.94 1027.09 1027.30 1027.49
1008.88 1010.39 1011.63 1012.75 1013.52 1015.52 1016.52 1016.69 1016.79 1016.85 1016.49 1016.46 1016.49 1016.94 1016.88 1016.76 1016.56 1016.46 1016.57 1017.04 1018.44 1019.94 1020.88 1021.70 1021.81 1022.46 1022.89 1023.02 1023.35 1023.50 1023.28 1022.91 1023.16 1023.60 1023.94 1024.22 1025.10 1025.89 1025.98 1026.46 1026.72 1027.01 1027.33 1027.62 1027.66 1027.70 1027.73 1027.60 1027.50 1027.53 1027.65 1027.89 1028.01 1028.10
1010.40 1013.45 1014.25 1015.23 1015.83 1016.59 1017.56 1018.01 1018.38 1018.40 1018.57 1018.48 1018.65 1018.75 1018.65 1018.50 1017.74 1017.41 1017.57 1017.76 1019.01 1020.30 1021.41 1022.34 1022.80 1022.85 1023.33 1023.81 1024.29 1024.19 1024.00 1023.89 1024.09 1024.76 1025.39 1025.21 1025.70 1026.50 1027.06 1027.22 1027.37 1027.76 1027.72 1028.05 1028.51 1028.39 1028.39 1028.22 1028.13 1028.20 1028.33 1028.49 1028.85 1029.20
1012.15 1015.08 1016.37 1016.89 1017.25 1017.61 1018.43 1019.01 1019.50 1019.53 1019.62 1020.23 1020.11 1020.05 1019.82 1019.03 1018.70 1018.26 1017.75 1018.28 1019.38 1020.58 1021.27 1021.69 1022.30 1023.16 1023.63 1023.81 1024.41 1024.73 1024.48 1024.47 1024.45 1025.00 1025.67 1025.53 1025.63 1025.90 1026.71 1027.25 1027.66 1027.94 1027.72 1027.81 1028.35 1028.71 1028.76 1028.69 1028.72 1028.85 1029.13 1029.35 1029.59 1029.73
1014.42 1016.67 1017.72 1018.07 1018.19 1018.56 1019.49 1019.88 1020.15 1020.60 1021.16 1020.86 1020.94 1020.99 1020.51 1019.81 1019.30 1018.24 1018.69 1019.32 1020.19 1020.71 1020.86 1021.08 1021.77 1022.67 1023.23 1023.72 1024.32 1024.20 1024.45 1024.59 1024.63 1024.57 1024.74 1025.50 1025.79 1025.98 1026.18 1026.69 1026.98 1027.07 1027.38 1027.66 1027.94 1028.47 1028.64 1028.77 1028.95 1029.10 1029.44 1029.88 1030.37 1030.51
1016.79 1018.08 1018.80 1019.44 1019.59 1020.00 1020.52 1021.27 1021.63 1022.27 1021.74 1021.88 1021.53 1021.29 1020.55 1019.37 1019.05 1019.42 1019.93 1020.39 1020.73 1020.97 1021.31 1021.64 1021.92 1022.21 1022.93 1023.48 1023.82 1024.39 1025.02 1025.02 1025.06 1025.20 1025.47 1025.99 1026.27 1026.41 1026.44 1026.49 1026.62 1027.05 1027.44 1027.68 1027.83 1027.99 1028.18 1028.52 1028.84 1029.29 1029.72 1030.26 1030.88 1030.92
1019.29 1019.87 1020.05 1020.94 1021.22 1021.64 1022.29 1022.77 1023.11 1023.18 1023.23 1022.78 1022.38 1021.42 1020.59 1019.91 1019.62 1020.08 1020.54 1020.79 1021.15 1021.36 1021.89 1022.36 1023.03 1022.85 1023.28 1023.85 1024.39 1024.80 1024.60 1025.12 1025.33 1025.93 1026.14 1026.58 1027.10 1027.10 1026.66 1026.72 1026.88 1027.10 1027.28 1027.46 1027.67 1027.79 1027.96 1028.18 1028.49 1029.11 1029.85 1030.38 1030.75 1031.07
1022.00 1022.19 1022.04 1022.62 1022.90 1023.52 1024.19 1024.58 1024.65 1024.48 1024.13 1023.89 1023.45 1022.31 1021.36 1020.41 1019.70 1019.77 1020.25 1020.84 1021.25 1021.44 1021.65 1021.93 1022.62 1022.90 1023.49 1024.02 1024.78 1025.43 1025.36 1025.24 1025.34 1025.41 1025.81 1025.99 1026.14 1025.90 1026.26 1026.71 1026.97 1027.17 1027.33 1027.47 1027.58 1027.62 1027.79 1028.47 1028.90 1029.49 1030.36 1030.90 1031.29 1031.72
1023.89 1023.56 1023.59 1023.73 1024.44 1025.02 1025.56 1025.73 1025.55 1025.38 1024.92 1024.53 1024.14 1023.79 1022.70 1021.58 1020.28 1019.79 1020.01 1020.24 1020.53 1020.81 1021.28 1021.95 1022.47 1022.70 1023.05 1023.60 1024.16 1024.87 1025.35 1024.97 1024.91 1024.95 1025.05 1025.15 1025.33 1025.64 1025.97 1026.36 1026.82 1027.13 1027.20 1027.28 1027.49 1027.92 1028.53 1029.20 1029.64 1030.28 1030.97 1031.52 1031.99 1032.42
1025.12 1025.54 1025.47 1025.41 1025.71 1026.01 1026.23 1026.24 1025.90 1025.57 1025.27 1025.09 1024.81 1024.61 1023.74 1023.30 1022.30 1020.56 1020.27 1020.27 1020.58 1020.81 1020.84 1021.19 1021.64 1022.00 1022.42 1022.91 1023.25 1023.46 1023.40 1023.48 1024.00 1024.48 1024.90 1025.02 1025.34 1025.76 1026.02 1026.21 1026.48 1026.70 1027.12 1027.44 1027.77 1028.24 1028.76 1029.48 1030.22 1030.86 1031.50 1032.16 1032.71 1033.27
1026.97 1026.85 1026.78 1026.63 1026.46 1026.65 1026.89 1026.63 1026.16 1025.66 1025.55 1025.43 1025.71 1025.58 1025.47 1025.48 1023.83 1021.66 1020.86 1020.67 1020.80 1020.73 1020.85 1021.00 1021.28 1021.27 1021.78 1022.44 1023.08 1023.43 1023.57 1023.66 1023.67 1023.54 1024.18 1024.58 1025.19 1025.64 1026.29 1026.54 1026.60 1026.80 1027.15 1027.65 1028.16 1028.69 1029.45 1030.04 1030.72 1031.38 1032.04 1032.64 1033.25 1033.83
Thickness
5247 5251 5256 5266 5283 5301 5320 5333 5345 5356 5365 5370 5379 5383 5394 5405 5411 5419 5436 5449 5456 5452 5464 5481 5496 5500 5499 5501 5492 5474 5478 5474 5480 5505 5507 5504 5515 5507 5487 5494 5490 5501 5498 5486 5493 5498 5523 5551 5548 5568 5590 5589 5593 5590
5243 5247 5251 5255 5270 5288 5305 5319 5330 5346 5352 5358 5363 5371 5380 5389 5394 5403 5418 5434 5439 5438 5447 5459 5472 5483 5500 5508 5483 5477 5495 5483 5497 5494 5491 5494 5502 5489 5492 5498 5494 5517 5532 5514 5526 5538 5557 5551 5575 5570 5574 5580 5585 5585
5240 5245 5248 5254 5264 5273 5292 5309 5319 5330 5337 5342 5350 5359 5366 5375 5383 5389 5399 5412 5418 5422 5431 5440 5461 5471 5477 5485 5491 5475 5471 5485 5487 5497 5492 5489 5503 5487 5504 5502 5504 5503 5518 5508 5519 5542 5547 5548 5559 5559 5563 5565 5572 5573
5240 5244 5248 5251 5255 5267 5284 5299 5313 5321 5328 5332 5338 5345 5353 5361 5369 5377 5383 5396 5407 5413 5421 5436 5445 5457 5466 5470 5476 5479 5481 5475 5478 5480 5476 5479 5490 5485 5486 5505 5522 5507 5511 5499 5509 5533 5540 5548 5549 5556 5557 5557 5562 5566
5239 5241 5247 5251 5257 5267 5283 5299 5309 5312 5318 5319 5323 5331 5339 5347 5355 5363 5372 5383 5391 5402 5412 5422 5427 5440 5449 5455 5459 5464 5468 5467 5464 5460 5462 5472 5471 5479 5468 5478 5483 5502 5510 5523 5528 5545 5557 5567 5565 5555 5548 5551 5555 5557
5235 5239 5245 5250 5256 5273 5288 5300 5302 5303 5307 5307 5310 5315 5325 5334 5342 5350 5348 5365 5374 5383 5390 5401 5408 5418 5430 5441 5446 5451 5457 5453 5453 5457 5458 5460 5465 5477 5486 5505 5519 5516 5515 5532 5543 5537 5537 5534 5527 5532 5550 5547 5548 5549
5233 5237 5243 5250 5258 5273 5288 5295 5295 5298 5299 5297 5297 5303 5309 5319 5326 5329 5329 5352 5359 5367 5376 5389 5395 5400 5411 5419 5421 5429 5438 5436 5439 5441 5447 5454 5456 5467 5477 5516 5516 5512 5522 5517 5523 5524 5530 5517 5532 5507 5512 5512 5513 5516
5233 5237 5242 5254 5260 5275 5283 5288 5287 5289 5297 5289 5284 5286 5292 5303 5313 5312 5325 5341 5348 5354 5358 5378 5385 5399 5401 5414 5419 5415 5422 5424 5421 5428 5429 5443 5443 5449 5478 5505 5513 5514 5505 5502 5506 5510 5509 5495 5489 5488 5484 5489 5494 5497
5232 5238 5246 5256 5271 5278 5284 5283 5284 5284 5279 5278 5275 5275 5278 5281 5277 5290 5310 5320 5329 5334 5356 5366 5388 5398 5393 5403 5405 5406 5411 5413 5407 5420 5426 5433 5438 5457 5492 5491 5492 5497 5492 5495 5472 5471 5474 5479 5473 5470 5469 5471 5480 5480
5236 5246 5258 5262 5270 5279 5280 5277 5274 5274 5274 5271 5268 5256 5252 5257 5273 5284 5294 5299 5311 5323 5334 5361 5368 5387 5394 5395 5399 5401 5400 5404 5403 5410 5410 5424 5447 5459 5450 5447 5453 5450 5446 5447 5455 5448 5451 5446 5446 5445 5447 5445 5458 5451
5245 5255 5263 5268 5269 5272 5270 5266 5266 5266 5263 5255 5242 5231 5250 5256 5260 5267 5277 5288 5289 5318 5336 5336 5368 5373 5374 5392 5395 5389 5393 5394 5399 5402 5411 5417 5443 5451 5421 5418 5416 5419 5423 5424 5431 5429 5426 5434 5430 5425 5424 5427 5428 5431
5243 5250 5259 5263 5265 5263 5262 5262 5257 5253 5249 5251 5248 5246 5245 5243 5249 5255 5252 5271 5296 5306 5330 5352 5361 5367 5365 5366 5379 5376 5391 5383 5388 5396 5406 5415 5432 5388 5385 5382 5382 5388 5394 5398 5400 5403 5402 5403 5403 5405 5406 5406 5406 5408
5236 5243 5250 5253 5253 5252 5252 5248 5249 5248 5248 5242 5233 5220 5217 5205 5229 5236 5261 5274 5256 5293 5321 5339 5351 5353 5353 5358 5368 5369 5374 5380 5382 5392 5405 5409 5363 5355 5358 5357 5356 5358 5363 5370 5373 5375 5378 5378 5384 5389 5390 5391 5392 5393
5229 5233 5237 5241 5243 5243 5241 5238 5238 5240 5234 5214 5202 5203 5197 5192 5208 5248 5235 5260 5270 5272 5290 5319 5332 5343 5345 5353 5360 5356 5352 5370 5375 5383 5375 5366 5331 5329 5326 5329 5339 5336 5341 5345 5351 5354 5358 5360 5364 5368 5367 5370 5380 5381
5221 5224 5226 5226 5228 5230 5230 5229 5230 5229 5214 5200 5198 5194 5186 5200 5201 5217 5223 5233 5264 5274 5294 5310 5316 5326 5332 5332 5344 5351 5356 5364 5367 5357 5321 5306 5294 5299 5304 5313 5320 5323 5324 5323 5327 5332 5335 5340 5346 5349 5353 5356 5361 5364
5212 5214 5214 5220 5222 5222 5221 5217 5217 5213 5196 5192 5189 5201 5174 5192 5202 5210 5213 5234 5256 5270 5283 5294 5299 5312 5327 5327 5329 5334 5347 5324 5327 5272 5271 5269 5267 5273 5277 5288 5297 5301 5306 5308 5309 5310 5315 5322 5327 5329 5334 5340 5345 5347
5200 5196 5204 5208 5210 5211 5210 5205 5199 5189 5183 5191 5193 5168 5178 5183 5201 5207 5215 5226 5237 5251 5276 5275 5292 5304 5277 5291 5303 5274 5284 5266 5248 5250 5266 5259 5257 5256 5259 5265 5274 5282 5286 5291 5295 5296 5295 5298 5306 5314 5320 5321 5323 5327
5186 5190 5194 5195 5194 5193 5187 5182 5180 5174 5181 5167 5175 5168 5163 5173 5187 5202 5203 5217 5227 5244 5260 5274 5267 5267 5272 5282 5260 5240 5234 5235 5232 5232 5232 5235 5238 5243 5249 5253 5255 5261 5266 5271 5277 5282 5283 5287 5292 5295 5299 5302 5306 5307
5183 5182 5181 5181 5181 5174 5173 5161 5161 5167 5157 5146 5149 5159 5167 5167 5175 5186 5191 5200 5209 5220 5227 5249 5263 5260 5264 5236 5235 5223 5225 5217 5225 5219 5219 5220 5223 5223 5225 5233 5235 5241 5246 5250 5258 5263 5264 5265 5268 5272 5277 5283 5285 5283
5178 5177 5175 5175 5174 5156 5148 5148 5147 5137 5136 5148 5146 5158 5159 5162 5165 5173 5183 5189 5202 5220 5236 5243 5249 5232 5218 5199 5199 5209 5215 5213 5210 5206 5203 5203 5205 5208 5209 5213 5219 5225 5232 5234 5235 5237 5239 5244 5246 5250 5256 5260 5264 5263
5178 5175 5175 5172 5160 5154 5142 5128 5136 5133 5135 5141 5143 5155 5148 5155 5168 5178 5183 5169 5202 5207 5202 5193 5182 5163 5174 5182 5183 5193 5197 5203 5204 5210 5209 5196 5193 5194 5197 5202 5206 5210 5215 5219 5219 5218 5220 5223 5225 5228 5233 5235 5236 5239
5166 5173 5171 5170 5160 5144 5134 5123 5135 5138 5144 5141 5145 5148 5158 5166 5172 5165 5149 5188 5183 5175 5164 5158 5153 5154 5160 5163 5165 5167 5170 5184 5188 5192 5194 5194 5188 5184 5183 5187 5192 5194 5195 5191 5194 5199 5202 5203 5206 5210 5215 5214 5217 5215
5165 5164 5156 5156 5158 5148 5131 5117 5132 5127 5153 5147 5145 5159 5160 5161 5148 5139 5178 5166 5153 5134 5132 5138 5136 5142 5144 5143 5149 5156 5162 5171 5173 5171 5172 5174 5171 5170 5169 5167 5171 5177 5175 5170 5174 5180 5185 5189 5189 5193 5196 5195 5195 5196
5153 5136 5133 5133 5129 5121 5096 5106 5097 5101 5118 5126 5142 5143 5143 5141 5126 5154 5173 5160 5140 5127 5131 5128 5133 5135 5137 5138 5140 5141 5144 5153 5154 5152 5152 5161 5156 5145 5150 5151 5153 5156 5158 5159 5159 5161 5163 5167 5172 5175 5176 5175 5175 5177
5156 5128 5116 5116 5090 5114 5111 5105 5095 5104 5114 5088 5111 5121 5114 5093 5139 5150 5165 5161 5131 5128 5125 5114 5116 5123 5130 5123 5123 5125 5127 5135 5146 5141 5131 5135 5139 5136 5135 5132 5135 5139 5141 5144 5142 5144 5145 5148 5153 5155 5155 5157 5157 5155
5146 5090 5111 5090 5089 5121 5103 5120 5105 5107 5082 5093 5092 5071 5068 5107 5146 5167 5158 5143 5130 5124 5121 5124 5125 5112 5114 5113 5117 5114 5121 5117 5125 5126 5119 5124 5130 5135 5129 5128 5123 5127 5130 5132 5132 5131 5131 5132 5134 5137 5136 5135 5137 5137
5121 5098 5071 5068 5074 5076 5073 5059 5059 5069 5082 5108 5078 5072 5084 5125 5132 5143 5106 5104 5111 5108 5109 5115 5115 5110 5113 5104 5102 5104 5108 5109 5113 5116 5115 5111 5112 5113 5117 5115 5112 5119 5118 5118 5118 5118 5118 5116 5116 5117 5117 5114 5114 5117
5081 5069 5096 5074 5071 5061 5077 5051 5061 5090 5073 5049 5067 5108 5124 5137 5137 5097 5093 5092 5089 5091 5092 5090 5091 5093 5094 5091 5094 5095 5091 5092 5096 5098 5099 5097 5096 5098 5101 5103 5106 5107 5106 5106 5106 5105 5105 5106 5105 5102 5101 5100 5095 5095
5064 5051 5057 5053 5050 5048 5052 5067 5070 5045 5037 5048 5081 5078 5081 5072 5073 5073 5077 5076 5076 5082 5081 5081 5074 5076 5078 5075 5073 5071 5080 5085 5087 5080 5077 5075 5076 5086 5089 5092 5093 5095 5095 5096 5098 5096 5095 5093 5091 5089 5086 5086 5084 5084
5052 5035 5052 5042 5068 5079 5048 5030 5040 5031 5035 5041 5044 5058 5068 5077 5080 5080 5082 5081 5080 5081 5080 5079 5073 5073 5071 5072 5063 5061 5061 5064 5067 5073 5072 5069 5077 5082 5083 5083 5083 5084 5085 5085 5086 5089 5091 5086 5082 5079 5078 5077 5078 5078
5031 5039 5057 5046 5054 5033 5026 5025 5029 5031 5036 5042 5045 5053 5068 5071 5080 5084 5087 5087 5087 5086 5082 5076 5073 5071 5071 5067 5068 5061 5058 5063 5064 5066 5068 5071 5073 5076 5079 5080 5080 5081 5081 5082 5084 5084 5082 5080 5079 5078 5077 5077 5078 5078
5045 5041 5059 5078 5058 5031 5025 5033 5032 5039 5037 5045 5053 5045 5061 5062 5076 5086 5084 5088 5089 5088 5088 5085 5082 5079 5076 5072 5071 5070 5074 5074 5073 5070 5069 5071 5072 5075 5079 5080 5082 5083 5085 5086 5087 5086 5085 5083 5080 5079 5078 5075 5075 5075
5029 5029 5030 5039 5050 5055 5032 5036 5038 5043 5032 5031 5035 5022 5027 5043 5087 5083 5082 5085 5090 5093 5093 5092 5089 5088 5087 5084 5083 5080 5081 5082 5083 5083 5082 5082 5083 5084 5086 5087 5088 5090 5090 5089 5088 5087 5085 5084 5083 5082 5081 5081 5080 5080